Location: ???????
(55.4231°N, 38.5570°E)
Time: 14:52:40
(UTC+00:00)

SL-16 R/B - Pass Details

Date: 05 August 2024
Orbit: 985 x 1006 km, 99.7° (Epoch: 18 September)

Event Time Altitude Azimuth Distance (km) Brightness Sun altitude
Rises 00:00:43 0° 165° (SSE) 3,685 5.1 -11.1°
Reaches altitude 10° 00:03:11 10° 167° (SSE) 2,740 4.5 -10.9°
Maximum altitude 00:09:20 75° 254° (WSW) 1,024 2.5 -10.4°
Drops below altitude 10° 00:15:33 10° 340° (NNW) 2,760 5.3 -9.9°
Sets 00:18:02 0° 342° (NNW) 3,715 6.0 -9.6°
